| time (UTC) | temp F | wind direction | speed MPH | gust MPH | rain 1hr in | rain 24hr in | rain mn in | humidity % | barometer mb |
| 20260903211501 | 64 | 208 | 0.0 | 0.0 | 0.00 | 0.30 | 0.11 | 58 | 1009.2 |
| 20260903210005 | 64 | 208 | 0.0 | 2.0 | 0.00 | 0.35 | 0.11 | 59 | 1009.1 |
| 20260903204502 | 63 | 201 | 0.0 | 3.0 | 0.00 | 0.35 | 0.11 | 58 | 1009.1 |
| 20260903201502 | 63 | 42 | 0.0 | 2.0 | 0.00 | 0.35 | 0.11 | 68 | 1009.0 |
| 20260903200006 | 62 | 212 | 0.0 | 2.0 | 0.00 | 0.35 | 0.11 | 68 | 1008.9 |
| 20260903194501 | 61 | 16 | 0.0 | 2.0 | 0.00 | 0.35 | 0.11 | 71 | 1008.9 |
| 20260903193003 | 61 | 11 | 0.0 | 2.0 | 0.00 | 0.35 | 0.11 | 73 | 1008.8 |
| 20260903190002 | 59 | 212 | 0.0 | 2.0 | 0.00 | 0.35 | 0.11 | 75 | 1008.9 |
| 20260903184503 | 58 | 212 | 0.0 | 2.0 | 0.00 | 0.35 | 0.11 | 81 | 1008.9 |
| 20260903183004 | 58 | 212 | 0.0 | 2.0 | 0.00 | 0.35 | 0.11 | 81 | 1009.0 |
| 20260903180006 | 57 | 212 | 0.0 | 2.0 | 0.00 | 0.35 | 0.11 | 84 | 1008.8 |
| 20260903174501 | 56 | 242 | 0.0 | 2.0 | 0.00 | 0.35 | 0.11 | 87 | 1008.8 |
| 20260903173005 | 56 | 257 | 0.0 | 0.0 | 0.00 | 0.35 | 0.11 | 91 | 1008.7 |
| 20260903171501 | 55 | 257 | 0.0 | 2.0 | 0.00 | 0.35 | 0.11 | 91 | 1008.8 |
| 20260903170002 | 55 | 257 | 0.0 | 1.0 | 0.01 | 0.35 | 0.11 | 93 | 1008.8 |
| 20260903164502 | 54 | 257 | 0.0 | 1.0 | 0.01 | 0.35 | 0.11 | 93 | 1008.8 |
| 20260903163001 | 54 | 257 | 0.0 | 2.0 | 0.01 | 0.35 | 0.11 | 94 | 1008.7 |
| 20260903161502 | 53 | 309 | 0.0 | 2.0 | 0.01 | 0.35 | 0.11 | 94 | 1008.8 |
| 20260903160003 | 53 | 309 | 0.0 | 2.0 | 0.00 | 0.34 | 0.10 | 93 | 1008.9 |
| 20260903154501 | 53 | 309 | 0.0 | 0.0 | 0.00 | 0.34 | 0.10 | 94 | 1008.9 |
| 20260903153002 | 53 | 309 | 0.0 | 0.0 | 0.00 | 0.34 | 0.10 | 94 | 1008.7 |
| 20260903151501 | 53 | 309 | 0.0 | 0.0 | 0.00 | 0.34 | 0.10 | 94 | 1008.6 |
| 20260903150002 | 52 | 309 | 0.0 | 0.0 | 0.00 | 0.34 | 0.10 | 94 | 1008.6 |
| 20260903144502 | 52 | 309 | 0.0 | 0.0 | 0.01 | 0.34 | 0.10 | 93 | 1008.4 |
| 20260903143001 | 52 | 309 | 0.0 | 0.0 | 0.03 | 0.34 | 0.10 | 93 | 1008.3 |
| 20260903141502 | 52 | 309 | 0.0 | 2.0 | 0.05 | 0.34 | 0.10 | 93 | 1008.2 |
| 20260903140006 | 53 | 322 | 0.0 | 0.0 | 0.06 | 0.34 | 0.10 | 93 | 1008.2 |
| 20260903134501 | 53 | 322 | 0.0 | 0.0 | 0.05 | 0.33 | 0.09 | 93 | 1008.1 |
| 20260903133001 | 53 | 322 | 0.0 | 0.0 | 0.04 | 0.31 | 0.07 | 93 | 1008.0 |
| 20260903131502 | 53 | 322 | 0.0 | 0.0 | 0.05 | 0.29 | 0.05 | 93 | 1008.0 |
| 20260903130006 | 53 | 322 | 0.0 | 0.0 | 0.04 | 0.28 | 0.04 | 92 | 1007.8 |
| 20260903124503 | 53 | 322 | 0.0 | 0.0 | 0.04 | 0.28 | 0.04 | 92 | 1007.8 |
| 20260903123001 | 53 | 322 | 0.0 | 0.0 | 0.03 | 0.27 | 0.03 | 91 | 1007.9 |
| 20260903121501 | 53 | 322 | 0.0 | 0.0 | 0.00 | 0.24 | 0.00 | 90 | 1007.9 |
| 20260903120000 | 53 | 322 | 0.0 | 0.0 | 0.00 | 0.24 | 0.00 | 90 | 1007.6 |
| 20260903114503 | 53 | 322 | 0.0 | 0.0 | 0.00 | 0.24 | 0.00 | 90 | 1007.4 |
| 20260903113001 | 53 | 322 | 0.0 | 0.0 | 0.00 | 0.24 | 0.00 | 90 | 1007.4 |
| 20260903111500 | 53 | 322 | 0.0 | 0.0 | 0.00 | 0.24 | 0.00 | 90 | 1007.3 |
| 20260903110000 | 52 | 322 | 0.0 | 0.0 | 0.00 | 0.24 | 0.00 | 90 | 1007.2 |
| 20260903104500 | 52 | 322 | 0.0 | 0.0 | 0.00 | 0.24 | 0.00 | 91 | 1007.4 |
| 20260903103000 | 52 | 322 | 0.0 | 0.0 | 0.00 | 0.24 | 0.00 | 92 | 1007.4 |
| 20260903101501 | 52 | 322 | 0.0 | 0.0 | 0.00 | 0.24 | 0.00 | 92 | 1007.4 |
| 20260903100000 | 52 | 322 | 0.0 | 0.0 | 0.00 | 0.24 | 0.00 | 92 | 1007.3 |
| 20260903094500 | 52 | 322 | 0.0 | 0.0 | 0.00 | 0.24 | 0.00 | 92 | 1007.3 |
| 20260903093000 | 52 | 322 | 0.0 | 1.0 | 0.00 | 0.24 | 0.00 | 91 | 1007.3 |
| 20260903091501 | 52 | 322 | 0.0 | 0.0 | 0.00 | 0.24 | 0.00 | 92 | 1007.3 |
| 20260903090000 | 52 | 322 | 0.0 | 0.0 | 0.00 | 0.24 | 0.00 | 92 | 1007.3 |
| 20260903084500 | 52 | 322 | 0.0 | 0.0 | 0.00 | 0.24 | 0.00 | 93 | 1007.3 |
| 20260903083000 | 52 | 322 | 0.0 | 0.0 | 0.00 | 0.24 | 0.00 | 92 | 1007.2 |
| 20260903081500 | 52 | 322 | 0.0 | 0.0 | 0.00 | 0.24 | 0.00 | 92 | 1007.3 |
| 20260903080004 | 52 | 322 | 0.0 | 0.0 | 0.00 | 0.24 | 0.00 | 92 | 1007.2 |
| 20260903074504 | 52 | 322 | 0.0 | 0.0 | 0.00 | 0.24 | 0.00 | 93 | 1007.2 |
| 20260903073004 | 52 | 322 | 0.0 | 0.0 | 0.00 | 0.24 | 0.00 | 93 | 1007.2 |
| 20260903071505 | 52 | 322 | 0.0 | 0.0 | 0.00 | 0.24 | 0.00 | 93 | 1007.1 |
| 20260903064504 | 52 | 322 | 0.0 | 0.0 | 0.00 | 0.24 | 0.24 | 93 | 1007.1 |
| 20260903063004 | 53 | 322 | 0.0 | 1.0 | 0.00 | 0.24 | 0.24 | 93 | 1007.1 |
| 20260903061503 | 53 | 322 | 0.0 | 0.0 | 0.00 | 0.24 | 0.24 | 93 | 1007.2 |
| 20260903060006 | 53 | 322 | 0.0 | 0.0 | 0.00 | 0.24 | 0.24 | 93 | 1007.2 |
| 20260903054504 | 53 | 322 | 0.0 | 0.0 | 0.00 | 0.24 | 0.24 | 93 | 1007.2 |
| 20260903051503 | 53 | 322 | 0.0 | 0.0 | 0.00 | 0.24 | 0.24 | 92 | 1007.2 |
| 20260903050005 | 53 | 322 | 0.0 | 0.0 | 0.00 | 0.24 | 0.24 | 92 | 1007.1 |
| 20260903043003 | 54 | 322 | 0.0 | 0.0 | 0.00 | 0.24 | 0.24 | 91 | 1007.0 |
| 20260903041504 | 54 | 322 | 0.0 | 0.0 | 0.00 | 0.24 | 0.24 | 91 | 1006.9 |
| 20260903040008 | 55 | 322 | 0.0 | 0.0 | 0.00 | 0.24 | 0.24 | 90 | 1006.8 |
| 20260903033004 | 56 | 322 | 0.0 | 0.0 | 0.00 | 0.24 | 0.24 | 91 | 1006.4 |
| 20260903031503 | 56 | 322 | 0.0 | 0.0 | 0.00 | 0.24 | 0.24 | 91 | 1006.4 |
| 20260903024503 | 57 | 322 | 0.0 | 0.0 | 0.00 | 0.24 | 0.24 | 91 | 1006.1 |
| 20260903020005 | 58 | 322 | 0.0 | 2.0 | 0.01 | 0.24 | 0.24 | 90 | 1005.6 |
| 20260903014502 | 58 | 322 | 0.0 | 2.0 | 0.01 | 0.24 | 0.24 | 91 | 1005.3 |
| 20260903013002 | 58 | 281 | 0.0 | 2.0 | 0.02 | 0.24 | 0.24 | 92 | 1005.2 |
| 20260903011502 | 58 | 281 | 0.0 | 2.0 | 0.07 | 0.24 | 0.24 | 93 | 1005.1 |
| 20260903010006 | 58 | 281 | 0.0 | 2.0 | 0.06 | 0.23 | 0.23 | 92 | 1005.1 |
| 20260903004502 | 57 | 282 | 0.0 | 2.0 | 0.06 | 0.23 | 0.23 | 92 | 1004.9 |
| 20260903001503 | 59 | 31 | 0.0 | 2.0 | 0.00 | 0.17 | 0.17 | 92 | 1004.9 |
| 20260903000005 | 58 | 83 | 0.0 | 0.0 | 0.00 | 0.17 | 0.17 | 92 | 1003.9 |
| 20260902233002 | 58 | 83 | 0.0 | 0.0 | 0.02 | 0.17 | 0.17 | 91 | 1004.0 |
| 20260902231502 | 58 | 83 | 0.0 | 0.0 | 0.04 | 0.17 | 0.17 | 91 | 1004.1 |
| 20260902230006 | 58 | 83 | 0.0 | 0.0 | 0.06 | 0.17 | 0.17 | 90 | 1003.8 |
| 20260902223002 | 59 | 83 | 0.0 | 2.0 | 0.06 | 0.14 | 0.14 | 89 | 1004.0 |
| 20260902221503 | 59 | 28 | 0.0 | 0.0 | 0.07 | 0.13 | 0.13 | 88 | 1003.9 |
| 20260902220008 | 59 | 28 | 0.0 | 2.0 | 0.06 | 0.11 | 0.11 | 88 | 1004.0 |
| 20260902214503 | 60 | 28 | 0.0 | 2.0 | 0.07 | 0.10 | 0.10 | 87 | 1003.9 |
| 20260902213001 | 60 | 28 | 0.0 | 2.0 | 0.07 | 0.08 | 0.08 | 86 | 1004.1 |